Year,Month,Day,Hour,Minute,Value (Times are PST for temperature in C)
2010,05,01,00,00,5.90
2010,05,01,00,01,5.80
2010,05,01,00,02,5.80
2010,05,01,00,03,5.80
2010,05,01,00,04,5.80
2010,05,01,00,05,5.80
2010,05,01,00,06,5.70
2010,05,01,00,07,5.70
2010,05,01,00,08,5.70
2010,05,01,00,09,5.70
2010,05,01,00,10,5.70
2010,05,01,00,11,5.80
2010,05,01,00,12,5.80
2010,05,01,00,13,5.80
2010,05,01,00,14,5.80
2010,05,01,00,15,5.80
2010,05,01,00,16,5.80
2010,05,01,00,17,5.80
2010,05,01,00,18,5.90
2010,05,01,00,19,5.90
2010,05,01,00,20,5.90
2010,05,01,00,21,5.90
2010,05,01,00,22,5.90
2010,05,01,00,23,5.90
2010,05,01,00,24,5.90
2010,05,01,00,25,5.90
2010,05,01,00,26,5.90
2010,05,01,00,27,5.90
2010,05,01,00,28,5.90
2010,05,01,00,29,6.00
2010,05,01,00,30,6.00
2010,05,01,00,31,6.00
2010,05,01,00,32,6.00
2010,05,01,00,33,6.00
2010,05,01,00,34,6.10
2010,05,01,00,35,6.10
2010,05,01,00,36,6.10
2010,05,01,00,37,6.10
2010,05,01,00,38,6.10
2010,05,01,00,39,6.10
2010,05,01,00,40,6.10
2010,05,01,00,41,6.10
2010,05,01,00,42,6.10
2010,05,01,00,43,6.10
2010,05,01,00,44,6.20
2010,05,01,00,45,6.20
2010,05,01,00,46,6.20
2010,05,01,00,47,6.20
2010,05,01,00,48,6.20
2010,05,01,00,49,6.20
2010,05,01,00,50,6.30
2010,05,01,00,51,6.30
2010,05,01,00,52,6.30
2010,05,01,00,53,6.30
2010,05,01,00,54,6.30
2010,05,01,00,55,6.30
2010,05,01,00,56,6.30
2010,05,01,00,57,6.30
2010,05,01,00,58,6.30
2010,05,01,00,59,6.30
2010,05,01,01,00,6.30
2010,05,01,01,01,6.30
2010,05,01,01,02,6.30
2010,05,01,01,03,6.40
2010,05,01,01,04,6.40
2010,05,01,01,05,6.40
2010,05,01,01,06,6.40
2010,05,01,01,07,6.40
2010,05,01,01,08,6.40
2010,05,01,01,09,6.40
2010,05,01,01,10,6.40
2010,05,01,01,11,6.40
2010,05,01,01,12,6.30
2010,05,01,01,13,6.30
2010,05,01,01,14,6.30
2010,05,01,01,15,6.30
2010,05,01,01,16,6.30
2010,05,01,01,17,6.30
2010,05,01,01,18,6.30
2010,05,01,01,19,6.40
2010,05,01,01,20,6.40
2010,05,01,01,21,6.40
2010,05,01,01,22,6.40
2010,05,01,01,23,6.40
2010,05,01,01,24,6.40
2010,05,01,01,25,6.40
2010,05,01,01,26,6.40
2010,05,01,01,27,6.40
2010,05,01,01,28,6.40
2010,05,01,01,29,6.40
2010,05,01,01,30,6.40
2010,05,01,01,31,6.40
2010,05,01,01,32,6.30
2010,05,01,01,33,6.30
2010,05,01,01,34,6.30
2010,05,01,01,35,6.30
2010,05,01,01,36,6.30
2010,05,01,01,37,6.30
2010,05,01,01,38,6.30
2010,05,01,01,39,6.30
2010,05,01,01,40,6.20
2010,05,01,01,41,6.20
2010,05,01,01,42,6.10
2010,05,01,01,43,6.10
2010,05,01,01,44,6.10
2010,05,01,01,45,6.00
2010,05,01,01,46,5.90
2010,05,01,01,47,5.90
2010,05,01,01,48,5.90
2010,05,01,01,49,5.90
2010,05,01,01,50,5.90
2010,05,01,01,51,5.80
2010,05,01,01,52,5.80
2010,05,01,01,53,5.80
2010,05,01,01,54,5.80
2010,05,01,01,55,5.80
2010,05,01,01,56,5.80
2010,05,01,01,57,5.80
2010,05,01,01,58,5.80
2010,05,01,01,59,5.70
2010,05,01,02,00,5.70
2010,05,01,02,01,5.70
2010,05,01,02,02,5.70
2010,05,01,02,03,5.70
2010,05,01,02,04,5.70
2010,05,01,02,05,5.70
2010,05,01,02,06,5.70
2010,05,01,02,07,5.70
2010,05,01,02,08,5.70
2010,05,01,02,09,5.70
2010,05,01,02,10,5.60
2010,05,01,02,11,5.60
2010,05,01,02,12,5.60
2010,05,01,02,13,5.60
2010,05,01,02,14,5.60
2010,05,01,02,15,5.60
2010,05,01,02,16,5.60
2010,05,01,02,17,5.60
2010,05,01,02,18,5.70
2010,05,01,02,19,5.70
2010,05,01,02,20,5.70
2010,05,01,02,21,5.70
2010,05,01,02,22,5.70
2010,05,01,02,23,5.80
2010,05,01,02,24,5.80
2010,05,01,02,25,5.80
2010,05,01,02,26,5.80
2010,05,01,02,27,5.80
2010,05,01,02,28,5.80
2010,05,01,02,29,5.80
2010,05,01,02,30,5.80
2010,05,01,02,31,5.80
2010,05,01,02,32,5.80
2010,05,01,02,33,5.80
2010,05,01,02,34,5.80
2010,05,01,02,35,5.80
2010,05,01,02,36,5.70
2010,05,01,02,37,5.70
2010,05,01,02,38,5.70
2010,05,01,02,39,5.70
2010,05,01,02,40,5.70
2010,05,01,02,41,5.70
2010,05,01,02,42,5.70
2010,05,01,02,43,5.70
2010,05,01,02,44,5.70
2010,05,01,02,45,5.70
2010,05,01,02,46,5.70
2010,05,01,02,47,5.70
2010,05,01,02,48,5.60
2010,05,01,02,49,5.60
2010,05,01,02,50,5.60
2010,05,01,02,51,5.60
2010,05,01,02,52,5.60
2010,05,01,02,53,5.60
2010,05,01,02,54,5.60
2010,05,01,02,55,5.60
2010,05,01,02,56,5.60
2010,05,01,02,57,5.60
2010,05,01,02,58,5.60
2010,05,01,02,59,5.60
2010,05,01,03,00,5.70
2010,05,01,03,01,5.70
2010,05,01,03,02,5.70
2010,05,01,03,03,5.70
2010,05,01,03,04,5.70
2010,05,01,03,05,5.70
2010,05,01,03,06,5.80
2010,05,01,03,07,5.80
2010,05,01,03,08,5.80
2010,05,01,03,09,5.70
2010,05,01,03,10,5.70
2010,05,01,03,11,5.80
2010,05,01,03,12,5.80
2010,05,01,03,13,5.80
2010,05,01,03,14,5.80
2010,05,01,03,15,5.80
2010,05,01,03,16,5.80
2010,05,01,03,17,5.80
2010,05,01,03,18,5.80
2010,05,01,03,19,5.70
2010,05,01,03,20,5.80
2010,05,01,03,21,5.80
2010,05,01,03,22,5.80
2010,05,01,03,23,5.80
2010,05,01,03,24,5.80
2010,05,01,03,25,5.90
2010,05,01,03,26,5.90
2010,05,01,03,27,5.90
2010,05,01,03,28,5.90
2010,05,01,03,29,5.90
2010,05,01,03,30,5.90
2010,05,01,03,31,5.90
2010,05,01,03,32,5.90
2010,05,01,03,33,5.90
2010,05,01,03,34,5.90
2010,05,01,03,35,5.90
2010,05,01,03,36,5.90
2010,05,01,03,37,5.90
2010,05,01,03,38,5.90
2010,05,01,03,39,5.80
2010,05,01,03,40,5.80
2010,05,01,03,41,5.80
2010,05,01,03,42,5.80
2010,05,01,03,43,5.80
2010,05,01,03,44,5.90
2010,05,01,03,45,5.90
2010,05,01,03,46,5.90
2010,05,01,03,47,5.90
2010,05,01,03,48,5.90
2010,05,01,03,49,5.90
2010,05,01,03,50,5.90
2010,05,01,03,51,5.90
2010,05,01,03,52,5.90
2010,05,01,03,53,5.90
2010,05,01,03,54,5.90
2010,05,01,03,55,5.90
2010,05,01,03,56,5.80
2010,05,01,03,57,5.80
2010,05,01,03,58,5.80
2010,05,01,03,59,5.80
2010,05,01,04,00,5.80
2010,05,01,04,01,5.80
2010,05,01,04,02,5.80
2010,05,01,04,03,5.80
2010,05,01,04,04,5.80
2010,05,01,04,05,5.70
2010,05,01,04,06,5.70
2010,05,01,04,07,5.70
2010,05,01,04,08,5.70
2010,05,01,04,09,5.70
2010,05,01,04,10,5.70
2010,05,01,04,11,5.60
2010,05,01,04,12,5.60
2010,05,01,04,13,5.60
2010,05,01,04,14,5.60
2010,05,01,04,15,5.60
2010,05,01,04,16,5.60
2010,05,01,04,17,5.60
2010,05,01,04,18,5.50
2010,05,01,04,19,5.50
2010,05,01,04,20,5.50
2010,05,01,04,21,5.40
2010,05,01,04,22,5.40
2010,05,01,04,23,5.40
2010,05,01,04,24,5.40
2010,05,01,04,25,5.50
2010,05,01,04,26,5.50
2010,05,01,04,27,5.50
2010,05,01,04,28,5.50
2010,05,01,04,29,5.50
2010,05,01,04,30,5.40
2010,05,01,04,31,5.40
2010,05,01,04,32,5.40
2010,05,01,04,33,5.40
2010,05,01,04,34,5.40
2010,05,01,04,35,5.40
2010,05,01,04,36,5.40
2010,05,01,04,37,5.40
2010,05,01,04,38,5.40
2010,05,01,04,39,5.40
2010,05,01,04,40,5.40
2010,05,01,04,41,5.40
2010,05,01,04,42,5.40
2010,05,01,04,43,5.50
2010,05,01,04,44,5.50
2010,05,01,04,45,5.50
2010,05,01,04,46,5.50
2010,05,01,04,47,5.60
2010,05,01,04,48,5.60
2010,05,01,04,49,5.60
2010,05,01,04,50,5.60
2010,05,01,04,51,5.60
2010,05,01,04,52,5.60
2010,05,01,04,53,5.60
2010,05,01,04,54,5.60
2010,05,01,04,55,5.50
2010,05,01,04,56,5.40
2010,05,01,04,57,5.40
2010,05,01,04,58,5.30
2010,05,01,04,59,5.30
2010,05,01,05,00,5.30
2010,05,01,05,01,5.30
2010,05,01,05,02,5.30
2010,05,01,05,03,5.30
2010,05,01,05,04,5.30
2010,05,01,05,05,5.30
2010,05,01,05,06,5.30
2010,05,01,05,07,5.30
2010,05,01,05,08,5.30
2010,05,01,05,09,5.30
2010,05,01,05,10,5.30
2010,05,01,05,11,5.30
2010,05,01,05,12,5.30
2010,05,01,05,13,5.20
2010,05,01,05,14,5.20
2010,05,01,05,15,5.20
2010,05,01,05,16,5.10
2010,05,01,05,17,5.10
2010,05,01,05,18,5.10
2010,05,01,05,19,5.10
2010,05,01,05,20,5.00
2010,05,01,05,21,5.00
2010,05,01,05,22,4.90
2010,05,01,05,23,4.90
2010,05,01,05,24,4.90
2010,05,01,05,25,4.90
2010,05,01,05,26,4.80
2010,05,01,05,27,4.80
2010,05,01,05,28,4.80
2010,05,01,05,29,4.80
2010,05,01,05,30,4.80
2010,05,01,05,31,4.80
2010,05,01,05,32,4.80
2010,05,01,05,33,4.80
2010,05,01,05,34,4.80
2010,05,01,05,35,4.80
2010,05,01,05,36,4.80
2010,05,01,05,37,4.80
2010,05,01,05,38,4.80
2010,05,01,05,39,4.70
2010,05,01,05,40,4.70
2010,05,01,05,41,4.70
2010,05,01,05,42,4.70
2010,05,01,05,43,4.70
2010,05,01,05,44,4.70
2010,05,01,05,45,4.70
2010,05,01,05,46,4.70
2010,05,01,05,47,4.70
2010,05,01,05,48,4.70
2010,05,01,05,49,4.70
2010,05,01,05,50,4.70
2010,05,01,05,51,4.70
2010,05,01,05,52,4.70
2010,05,01,05,53,4.70
2010,05,01,05,54,4.70
2010,05,01,05,55,4.70
2010,05,01,05,56,4.70
2010,05,01,05,57,4.70
2010,05,01,05,58,4.70
2010,05,01,05,59,4.70
2010,05,01,06,00,4.70
2010,05,01,06,01,4.70
2010,05,01,06,02,4.70
2010,05,01,06,03,4.70
2010,05,01,06,04,4.80
2010,05,01,06,05,4.80
2010,05,01,06,06,4.80
2010,05,01,06,07,4.80
2010,05,01,06,08,4.80
2010,05,01,06,09,4.90
2010,05,01,06,10,4.90
2010,05,01,06,11,5.00
2010,05,01,06,12,5.00
2010,05,01,06,13,5.10
2010,05,01,06,14,5.10
2010,05,01,06,15,5.10
2010,05,01,06,16,5.10
2010,05,01,06,17,5.10
2010,05,01,06,18,5.20
2010,05,01,06,19,5.20
2010,05,01,06,20,5.20
2010,05,01,06,21,5.20
2010,05,01,06,22,5.20
2010,05,01,06,23,5.20
2010,05,01,06,24,5.20
2010,05,01,06,25,5.20
2010,05,01,06,26,5.30
2010,05,01,06,27,5.30
2010,05,01,06,28,5.30
2010,05,01,06,29,5.40
2010,05,01,06,30,5.40
2010,05,01,06,31,5.40
2010,05,01,06,32,5.40
2010,05,01,06,33,5.40
2010,05,01,06,34,5.50
2010,05,01,06,35,5.50
2010,05,01,06,36,5.50
2010,05,01,06,37,5.60
2010,05,01,06,38,5.60
2010,05,01,06,39,5.60
2010,05,01,06,40,5.70
2010,05,01,06,41,5.70
2010,05,01,06,42,5.80
2010,05,01,06,43,5.80
2010,05,01,06,44,5.80
2010,05,01,06,45,5.90
2010,05,01,06,46,5.90
2010,05,01,06,47,5.90
2010,05,01,06,48,6.00
2010,05,01,06,49,6.00
2010,05,01,06,50,6.10
2010,05,01,06,51,6.10
2010,05,01,06,52,6.20
2010,05,01,06,53,6.20
2010,05,01,06,54,6.20
2010,05,01,06,55,6.30
2010,05,01,06,56,6.30
2010,05,01,06,57,6.30
2010,05,01,06,58,6.30
2010,05,01,06,59,6.30
2010,05,01,07,00,6.40
2010,05,01,07,01,6.40
2010,05,01,07,02,6.40
2010,05,01,07,03,6.40
2010,05,01,07,04,6.40
2010,05,01,07,05,6.50
2010,05,01,07,06,6.50
2010,05,01,07,07,6.50
2010,05,01,07,08,6.50
2010,05,01,07,09,6.50
2010,05,01,07,10,6.60
2010,05,01,07,11,6.60
2010,05,01,07,12,6.60
2010,05,01,07,13,6.60
2010,05,01,07,14,6.60
2010,05,01,07,15,6.60
2010,05,01,07,16,6.60
2010,05,01,07,17,6.60
2010,05,01,07,18,6.60
2010,05,01,07,19,6.60
2010,05,01,07,20,6.70
2010,05,01,07,21,6.70
2010,05,01,07,22,6.70
2010,05,01,07,23,6.70
2010,05,01,07,24,6.70
2010,05,01,07,25,6.70
2010,05,01,07,26,6.70
2010,05,01,07,27,6.70
2010,05,01,07,28,6.70
2010,05,01,07,29,6.70
2010,05,01,07,30,6.70
2010,05,01,07,31,6.70
2010,05,01,07,32,6.70
2010,05,01,07,33,6.70
2010,05,01,07,34,6.70
2010,05,01,07,35,6.70
2010,05,01,07,36,6.70
2010,05,01,07,37,6.70
2010,05,01,07,38,6.80
2010,05,01,07,39,6.80
2010,05,01,07,40,6.80
2010,05,01,07,41,6.90
2010,05,01,07,42,6.90
2010,05,01,07,43,7.00
2010,05,01,07,44,7.10
2010,05,01,07,45,7.20
2010,05,01,07,46,7.20
2010,05,01,07,47,7.30
2010,05,01,07,48,7.40
2010,05,01,07,49,7.40
2010,05,01,07,50,7.50
2010,05,01,07,51,7.60
2010,05,01,07,52,7.60
2010,05,01,07,53,7.70
2010,05,01,07,54,7.70
2010,05,01,07,55,7.80
2010,05,01,07,56,7.80
2010,05,01,07,57,7.90
2010,05,01,07,58,7.90
2010,05,01,07,59,7.90
2010,05,01,08,00,7.90
2010,05,01,08,01,7.90
2010,05,01,08,02,7.90
2010,05,01,08,03,7.90
2010,05,01,08,04,7.90
2010,05,01,08,05,7.90
2010,05,01,08,06,7.90
2010,05,01,08,07,8.00
2010,05,01,08,08,8.00
2010,05,01,08,09,8.00
2010,05,01,08,10,8.00
2010,05,01,08,11,8.10
2010,05,01,08,12,8.10
2010,05,01,08,13,8.10
2010,05,01,08,14,8.20
2010,05,01,08,15,8.20
2010,05,01,08,16,8.20
2010,05,01,08,17,8.30
2010,05,01,08,18,8.30
2010,05,01,08,19,8.30
2010,05,01,08,20,8.30
2010,05,01,08,21,8.40
2010,05,01,08,22,8.40
2010,05,01,08,23,8.40
2010,05,01,08,24,8.40
2010,05,01,08,25,8.50
2010,05,01,08,26,8.50
2010,05,01,08,27,8.50
2010,05,01,08,28,8.60
2010,05,01,08,29,8.60
2010,05,01,08,30,8.70
2010,05,01,08,31,8.70
2010,05,01,08,32,8.70
2010,05,01,08,33,8.70
2010,05,01,08,34,8.70
2010,05,01,08,35,8.70
2010,05,01,08,36,8.70
2010,05,01,08,37,8.70
2010,05,01,08,38,8.80
2010,05,01,08,39,8.80
2010,05,01,08,40,8.80
2010,05,01,08,41,8.90
2010,05,01,08,42,8.90
2010,05,01,08,43,8.90
2010,05,01,08,44,8.90
2010,05,01,08,45,8.90
2010,05,01,08,46,8.90
2010,05,01,08,47,8.90
2010,05,01,08,48,8.90
2010,05,01,08,49,8.90
2010,05,01,08,50,8.90
2010,05,01,08,51,8.90
2010,05,01,08,52,9.00
2010,05,01,08,53,9.00
2010,05,01,08,54,9.10
2010,05,01,08,55,9.10
2010,05,01,08,56,9.00
2010,05,01,08,57,9.00
2010,05,01,08,58,9.00
2010,05,01,08,59,8.90
2010,05,01,09,00,8.90
2010,05,01,09,01,8.90
2010,05,01,09,02,8.90
2010,05,01,09,03,8.90
2010,05,01,09,04,8.90
2010,05,01,09,05,8.90
2010,05,01,09,06,8.90
2010,05,01,09,07,8.90
2010,05,01,09,08,8.90
2010,05,01,09,09,8.90
2010,05,01,09,10,8.90
2010,05,01,09,11,8.90
2010,05,01,09,12,9.00
2010,05,01,09,13,9.00
2010,05,01,09,14,9.00
2010,05,01,09,15,8.90
2010,05,01,09,16,8.90
2010,05,01,09,17,8.90
2010,05,01,09,18,9.00
2010,05,01,09,19,9.00
2010,05,01,09,20,9.00
2010,05,01,09,21,9.00
2010,05,01,09,22,9.10
2010,05,01,09,23,9.10
2010,05,01,09,24,9.10
2010,05,01,09,25,9.10
2010,05,01,09,26,9.20
2010,05,01,09,27,9.20
2010,05,01,09,28,9.20
2010,05,01,09,29,9.20
2010,05,01,09,30,9.20
2010,05,01,09,31,9.20
2010,05,01,09,32,9.20
2010,05,01,09,33,9.20
2010,05,01,09,34,9.30
2010,05,01,09,35,9.30
2010,05,01,09,36,9.30
2010,05,01,09,37,9.30
2010,05,01,09,38,9.30
2010,05,01,09,39,9.30
2010,05,01,09,40,9.30
2010,05,01,09,41,9.30
2010,05,01,09,42,9.30
2010,05,01,09,43,9.30
2010,05,01,09,44,9.30
2010,05,01,09,45,9.30
2010,05,01,09,46,9.30
2010,05,01,09,47,9.30
2010,05,01,09,48,9.20
2010,05,01,09,49,9.20
2010,05,01,09,50,9.20
2010,05,01,09,51,9.20
2010,05,01,09,52,9.20
2010,05,01,09,53,9.20
2010,05,01,09,54,9.20
2010,05,01,09,55,9.20
2010,05,01,09,56,9.20
2010,05,01,09,57,9.30
2010,05,01,09,58,9.30
2010,05,01,09,59,9.20
2010,05,01,10,00,9.20
2010,05,01,10,01,9.20
2010,05,01,10,02,9.30
2010,05,01,10,03,9.30
2010,05,01,10,04,9.40
2010,05,01,10,05,9.40
2010,05,01,10,06,9.50
2010,05,01,10,07,9.60
2010,05,01,10,08,9.60
2010,05,01,10,09,9.60
2010,05,01,10,10,9.70
2010,05,01,10,11,9.80
2010,05,01,10,12,9.80
2010,05,01,10,13,9.80
2010,05,01,10,14,9.80
2010,05,01,10,15,9.80
2010,05,01,10,16,9.80
2010,05,01,10,17,9.70
2010,05,01,10,18,9.70
2010,05,01,10,19,9.70
2010,05,01,10,20,9.70
2010,05,01,10,21,9.80
2010,05,01,10,22,9.80
2010,05,01,10,23,9.90
2010,05,01,10,24,9.90
2010,05,01,10,25,10.00
2010,05,01,10,26,10.00
2010,05,01,10,27,10.10
2010,05,01,10,28,10.20
2010,05,01,10,29,10.30
2010,05,01,10,30,10.30
2010,05,01,10,31,10.20
2010,05,01,10,32,10.10
2010,05,01,10,33,10.00
2010,05,01,10,34,9.90
2010,05,01,10,35,9.80
2010,05,01,10,36,9.70
2010,05,01,10,37,9.70
2010,05,01,10,38,9.60
2010,05,01,10,39,9.60
2010,05,01,10,40,9.50
2010,05,01,10,41,9.50
2010,05,01,10,42,9.40
2010,05,01,10,43,9.40
2010,05,01,10,44,9.40
2010,05,01,10,45,9.40
2010,05,01,10,46,9.40
2010,05,01,10,47,9.50
2010,05,01,10,48,9.50
2010,05,01,10,49,9.50
2010,05,01,10,50,9.50
2010,05,01,10,51,9.50
2010,05,01,10,52,9.50
2010,05,01,10,53,9.60
2010,05,01,10,54,9.60
2010,05,01,10,55,9.60
2010,05,01,10,56,9.60
2010,05,01,10,57,9.60
2010,05,01,10,58,9.60
2010,05,01,10,59,9.70
2010,05,01,11,00,9.60
2010,05,01,11,01,9.60
2010,05,01,11,02,9.60
2010,05,01,11,03,9.60
2010,05,01,11,04,9.60
2010,05,01,11,05,9.60
2010,05,01,11,06,9.60
2010,05,01,11,07,9.70
2010,05,01,11,08,9.70
2010,05,01,11,09,9.80
2010,05,01,11,10,9.80
2010,05,01,11,11,9.80
2010,05,01,11,12,9.80
2010,05,01,11,13,9.80
2010,05,01,11,14,9.90
2010,05,01,11,15,9.90
2010,05,01,11,16,9.90
2010,05,01,11,17,10.00
2010,05,01,11,18,10.10
2010,05,01,11,19,10.20
2010,05,01,11,20,10.20
2010,05,01,11,21,10.30
2010,05,01,11,22,10.30
2010,05,01,11,23,10.30
2010,05,01,11,24,10.20
2010,05,01,11,25,10.30
2010,05,01,11,26,10.30
2010,05,01,11,27,10.30
2010,05,01,11,28,10.40
2010,05,01,11,29,10.40
2010,05,01,11,30,10.40
2010,05,01,11,31,10.50
2010,05,01,11,32,10.60
2010,05,01,11,33,10.70
2010,05,01,11,34,10.80
2010,05,01,11,35,10.90
2010,05,01,11,36,11.00
2010,05,01,11,37,11.00
2010,05,01,11,38,11.00
2010,05,01,11,39,10.90
2010,05,01,11,40,10.80
2010,05,01,11,41,10.80
2010,05,01,11,42,10.80
2010,05,01,11,43,10.80
2010,05,01,11,44,10.70
2010,05,01,11,45,10.70
2010,05,01,11,46,10.70
2010,05,01,11,47,10.70
2010,05,01,11,48,10.70
2010,05,01,11,49,10.70
2010,05,01,11,50,10.70
2010,05,01,11,51,10.70
2010,05,01,11,52,10.70
2010,05,01,11,53,10.70
2010,05,01,11,54,10.80
2010,05,01,11,55,10.80
2010,05,01,11,56,10.80
2010,05,01,11,57,10.90
2010,05,01,11,58,10.90
2010,05,01,11,59,11.00
2010,05,01,12,00,11.10
2010,05,01,12,01,11.10
2010,05,01,12,02,11.10
2010,05,01,12,03,11.10
2010,05,01,12,04,11.20
2010,05,01,12,05,11.20
2010,05,01,12,06,11.20
2010,05,01,12,07,11.30
2010,05,01,12,08,11.30
2010,05,01,12,09,11.30
2010,05,01,12,10,11.30
2010,05,01,12,11,11.20
2010,05,01,12,12,11.10
2010,05,01,12,13,11.10
2010,05,01,12,14,11.00
2010,05,01,12,15,11.00
2010,05,01,12,16,11.00
2010,05,01,12,17,11.00
2010,05,01,12,18,11.10
2010,05,01,12,19,11.10
2010,05,01,12,20,11.10
2010,05,01,12,21,11.20
2010,05,01,12,22,11.10
2010,05,01,12,23,11.10
2010,05,01,12,24,11.20
2010,05,01,12,25,11.30
2010,05,01,12,26,11.40
2010,05,01,12,27,11.40
2010,05,01,12,28,11.50
2010,05,01,12,29,11.50
2010,05,01,12,30,11.50
2010,05,01,12,31,11.50
2010,05,01,12,32,11.50
2010,05,01,12,33,11.50
2010,05,01,12,34,11.60
2010,05,01,12,35,11.70
2010,05,01,12,36,11.80
2010,05,01,12,37,11.90
2010,05,01,12,38,11.90
2010,05,01,12,39,11.90
2010,05,01,12,40,11.90
2010,05,01,12,41,11.90
2010,05,01,12,42,11.80
2010,05,01,12,43,11.70
2010,05,01,12,44,11.60
2010,05,01,12,45,11.60
2010,05,01,12,46,11.60
2010,05,01,12,47,11.60
2010,05,01,12,48,11.60
2010,05,01,12,49,11.70
2010,05,01,12,50,11.70
2010,05,01,12,51,11.70
2010,05,01,12,52,11.70
2010,05,01,12,53,11.70
2010,05,01,12,54,11.70
2010,05,01,12,55,11.70
2010,05,01,12,56,11.70
2010,05,01,12,57,11.80
2010,05,01,12,58,11.80
2010,05,01,12,59,11.90
2010,05,01,13,00,12.00
2010,05,01,13,01,12.00
2010,05,01,13,02,12.10
2010,05,01,13,03,12.10
2010,05,01,13,04,12.10
2010,05,01,13,05,12.20
2010,05,01,13,06,12.20
2010,05,01,13,07,12.20
2010,05,01,13,08,12.10
2010,05,01,13,09,12.00
2010,05,01,13,10,11.90
2010,05,01,13,11,11.80
2010,05,01,13,12,11.80
2010,05,01,13,13,11.80
2010,05,01,13,14,11.70
2010,05,01,13,15,11.70
2010,05,01,13,16,11.70
2010,05,01,13,17,11.60
2010,05,01,13,18,11.60
2010,05,01,13,19,11.60
2010,05,01,13,20,11.50
2010,05,01,13,21,11.50
2010,05,01,13,22,11.40
2010,05,01,13,23,11.40
2010,05,01,13,24,11.50
2010,05,01,13,25,11.50
2010,05,01,13,26,11.60
2010,05,01,13,27,11.60
2010,05,01,13,28,11.70
2010,05,01,13,29,11.70
2010,05,01,13,30,11.80
2010,05,01,13,31,11.80
2010,05,01,13,32,11.80
2010,05,01,13,33,11.80
2010,05,01,13,34,11.80
2010,05,01,13,35,11.70
2010,05,01,13,36,11.70
2010,05,01,13,37,11.70
2010,05,01,13,38,11.70
2010,05,01,13,39,11.60
2010,05,01,13,40,11.50
2010,05,01,13,41,11.50
2010,05,01,13,42,11.40
2010,05,01,13,43,11.20
2010,05,01,13,44,11.20
2010,05,01,13,45,11.20
2010,05,01,13,46,11.20
2010,05,01,13,47,11.20
2010,05,01,13,48,11.20
2010,05,01,13,49,11.20
2010,05,01,13,50,11.20
2010,05,01,13,51,11.10
2010,05,01,13,52,11.10
2010,05,01,13,53,11.00
2010,05,01,13,54,10.90
2010,05,01,13,55,10.90
2010,05,01,13,56,10.80
2010,05,01,13,57,10.80
2010,05,01,13,58,10.80
2010,05,01,13,59,10.80
2010,05,01,14,00,10.80
2010,05,01,14,01,10.80
2010,05,01,14,02,10.80
2010,05,01,14,03,10.80
2010,05,01,14,04,10.80
2010,05,01,14,05,10.70
2010,05,01,14,06,10.70
2010,05,01,14,07,10.70
2010,05,01,14,08,10.70
2010,05,01,14,09,10.80
2010,05,01,14,10,10.80
2010,05,01,14,11,10.80
2010,05,01,14,12,11.00
2010,05,01,14,13,11.10
2010,05,01,14,14,11.20
2010,05,01,14,15,11.20
2010,05,01,14,16,11.30
2010,05,01,14,17,11.40
2010,05,01,14,18,11.40
2010,05,01,14,19,11.40
2010,05,01,14,20,11.50
2010,05,01,14,21,11.50
2010,05,01,14,22,11.50
2010,05,01,14,23,11.50
2010,05,01,14,24,11.60
2010,05,01,14,25,11.70
2010,05,01,14,26,11.70
2010,05,01,14,27,11.70
2010,05,01,14,28,11.70
2010,05,01,14,29,11.80
2010,05,01,14,30,11.80
2010,05,01,14,31,11.90
2010,05,01,14,32,12.10
2010,05,01,14,33,12.20
2010,05,01,14,34,12.20
2010,05,01,14,35,12.30
2010,05,01,14,36,12.40
2010,05,01,14,37,12.50
2010,05,01,14,38,12.50
2010,05,01,14,39,12.60
2010,05,01,14,40,12.60
2010,05,01,14,41,12.60
2010,05,01,14,42,12.60
2010,05,01,14,43,12.60
2010,05,01,14,44,12.50
2010,05,01,14,45,12.50
2010,05,01,14,46,12.50
2010,05,01,14,47,12.60
2010,05,01,14,48,12.70
2010,05,01,14,49,12.90
2010,05,01,14,50,13.00
2010,05,01,14,51,13.00
2010,05,01,14,52,13.00
2010,05,01,14,53,12.90
2010,05,01,14,54,12.80
2010,05,01,14,55,12.60
2010,05,01,14,56,12.60
2010,05,01,14,57,12.50
2010,05,01,14,58,12.40
2010,05,01,14,59,12.40
2010,05,01,15,00,12.40
2010,05,01,15,01,12.50
2010,05,01,15,02,12.50
2010,05,01,15,03,12.50
2010,05,01,15,04,12.50
2010,05,01,15,05,12.50
2010,05,01,15,06,12.50
2010,05,01,15,07,12.50
2010,05,01,15,08,12.60
2010,05,01,15,09,12.70
2010,05,01,15,10,12.70
2010,05,01,15,11,12.80
2010,05,01,15,12,12.70
2010,05,01,15,13,12.70
2010,05,01,15,14,12.60
2010,05,01,15,15,12.60
2010,05,01,15,16,12.60
2010,05,01,15,17,12.60
2010,05,01,15,18,12.70
2010,05,01,15,19,12.80
2010,05,01,15,20,12.80
2010,05,01,15,21,12.80
2010,05,01,15,22,12.90
2010,05,01,15,23,12.90
2010,05,01,15,24,13.00
2010,05,01,15,25,12.90
2010,05,01,15,26,12.90
2010,05,01,15,27,12.80
2010,05,01,15,28,12.90
2010,05,01,15,29,13.00
2010,05,01,15,30,13.10
2010,05,01,15,31,13.10
2010,05,01,15,32,13.20
2010,05,01,15,33,13.20
2010,05,01,15,34,13.20
2010,05,01,15,35,13.30
2010,05,01,15,36,13.30
2010,05,01,15,37,13.40
2010,05,01,15,38,13.40
2010,05,01,15,39,13.50
2010,05,01,15,40,13.50
2010,05,01,15,41,13.50
2010,05,01,15,42,13.60
2010,05,01,15,43,13.60
2010,05,01,15,44,13.60
2010,05,01,15,45,13.60
2010,05,01,15,46,13.60
2010,05,01,15,47,13.70
2010,05,01,15,48,13.70
2010,05,01,15,49,13.70
2010,05,01,15,50,13.70
2010,05,01,15,51,13.70
2010,05,01,15,52,13.60
2010,05,01,15,53,13.60
2010,05,01,15,54,13.70
2010,05,01,15,55,13.70
2010,05,01,15,56,13.70
2010,05,01,15,57,13.70
2010,05,01,15,58,13.70
2010,05,01,15,59,13.80
2010,05,01,16,00,13.80
2010,05,01,16,01,13.80
2010,05,01,16,02,13.90
2010,05,01,16,03,13.90
2010,05,01,16,04,14.00
2010,05,01,16,05,14.10
2010,05,01,16,06,14.10
2010,05,01,16,07,14.10
2010,05,01,16,08,14.10
2010,05,01,16,09,14.20
2010,05,01,16,10,14.20
2010,05,01,16,11,14.20
2010,05,01,16,12,14.20
2010,05,01,16,13,14.20
2010,05,01,16,14,14.20
2010,05,01,16,15,14.20
2010,05,01,16,16,14.20
2010,05,01,16,17,14.10
2010,05,01,16,18,14.10
2010,05,01,16,19,14.10
2010,05,01,16,20,14.10
2010,05,01,16,21,14.10
2010,05,01,16,22,14.00
2010,05,01,16,23,14.00
2010,05,01,16,24,14.00
2010,05,01,16,25,14.00
2010,05,01,16,26,14.00
2010,05,01,16,27,14.00
2010,05,01,16,28,14.00
2010,05,01,16,29,14.00
2010,05,01,16,30,14.10
2010,05,01,16,31,14.10
2010,05,01,16,32,14.10
2010,05,01,16,33,14.10
2010,05,01,16,34,14.20
2010,05,01,16,35,14.30
2010,05,01,16,36,14.30
2010,05,01,16,37,14.20
2010,05,01,16,38,14.10
2010,05,01,16,39,14.00
2010,05,01,16,40,14.00
2010,05,01,16,41,14.00
2010,05,01,16,42,13.90
2010,05,01,16,43,13.90
2010,05,01,16,44,14.00
2010,05,01,16,45,14.00
2010,05,01,16,46,14.10
2010,05,01,16,47,14.10
2010,05,01,16,48,14.00
2010,05,01,16,49,14.00
2010,05,01,16,50,14.00
2010,05,01,16,51,14.00
2010,05,01,16,52,14.10
2010,05,01,16,53,14.10
2010,05,01,16,54,14.10
2010,05,01,16,55,14.00
2010,05,01,16,56,14.10
2010,05,01,16,57,14.10
2010,05,01,16,58,14.20
2010,05,01,16,59,14.10
2010,05,01,17,00,14.10
2010,05,01,17,01,14.10
2010,05,01,17,02,14.30
2010,05,01,17,03,14.30
2010,05,01,17,04,14.30
2010,05,01,17,05,14.20
2010,05,01,17,06,14.10
2010,05,01,17,07,14.10
2010,05,01,17,08,14.00
2010,05,01,17,09,14.00
2010,05,01,17,10,13.90
2010,05,01,17,11,13.90
2010,05,01,17,12,13.90
2010,05,01,17,13,13.90
2010,05,01,17,14,13.80
2010,05,01,17,15,13.80
2010,05,01,17,16,13.80
2010,05,01,17,17,13.70
2010,05,01,17,18,13.60
2010,05,01,17,19,13.50
2010,05,01,17,20,13.40
2010,05,01,17,21,13.30
2010,05,01,17,22,13.30
2010,05,01,17,23,13.20
2010,05,01,17,24,13.20
2010,05,01,17,25,13.20
2010,05,01,17,26,13.20
2010,05,01,17,27,13.20
2010,05,01,17,28,13.10
2010,05,01,17,29,13.20
2010,05,01,17,30,13.20
2010,05,01,17,31,13.30
2010,05,01,17,32,13.40
2010,05,01,17,33,13.50
2010,05,01,17,34,13.60
2010,05,01,17,35,13.60
2010,05,01,17,36,13.60
2010,05,01,17,37,13.70
2010,05,01,17,38,13.60
2010,05,01,17,39,13.50
2010,05,01,17,40,13.40
2010,05,01,17,41,13.40
2010,05,01,17,42,13.30
2010,05,01,17,43,13.30
2010,05,01,17,44,13.30
2010,05,01,17,45,13.30
2010,05,01,17,46,13.30
2010,05,01,17,47,13.30
2010,05,01,17,48,13.30